Back to catalog

ONEWEB-0219

AliveCommunicationsPO
NORAD 48223·PAYLOAD·🇬🇧 United Kingdom

Launched Apr 25, 2021 from Vostochny Cosmodrome

Loading…

Next Passes (next 24 hours)

TLE

FreshSource: CelesTrak SupGP

Epoch: Sep 14, 2026, 23:19 UTC

1 48223C 21031P   26257.97205278  .00002985  00000+0  80627-2 0  2573
2 48223  87.8898 271.7966 0001724  97.6647 289.0971 13.14498115    14

Track ONEWEB-0219 in real time with AllMySat

Download on the App Store